FLIWT25 WBKK-WIII

Flight info

Callsign FLIWT25
Flight time N/A
Altitude 36000
Route PIMEP2F PIMEP P648 AMBOY
Aircraft A320/M-SDE2E3FGHIRWY/LB1

Departure

Time 2026-04-30 02:28
Airport Kota Kinabalu International Airport (WBKK)

Arrival

Time N/A
Airport Soekarno-Hatta International Airport (WIII)
Time Latitude Longitude Altitude Speed Heading
2026-04-30 02:06 5.92272 116.04986 12 ft 0 kts 68°
2026-04-30 02:17 5.92269 116.04978 12 ft 4 kts 68°
2026-04-30 02:17 5.92259 116.04953 14 ft 4 kts 68°
2026-04-30 02:17 5.92248 116.04928 13 ft 4 kts 59°
2026-04-30 02:18 5.92232 116.04908 12 ft 4 kts 21°
2026-04-30 02:18 5.92218 116.04907 14 ft 0 kts 338°
2026-04-30 02:21 5.92219 116.04906 13 ft 0 kts 338°
2026-04-30 02:21 5.92229 116.04902 13 ft 7 kts 338°
2026-04-30 02:22 5.92316 116.04866 11 ft 15 kts 337°
2026-04-30 02:22 5.92403 116.04807 11 ft 16 kts 297°
2026-04-30 02:22 5.92493 116.04784 13 ft 16 kts 23°
2026-04-30 02:22 5.92606 116.04831 11 ft 22 kts 22°
2026-04-30 02:23 5.92760 116.04897 12 ft 25 kts 22°
2026-04-30 02:23 5.92921 116.04966 10 ft 26 kts 23°
2026-04-30 02:23 5.93088 116.05035 11 ft 26 kts 22°
2026-04-30 02:23 5.93258 116.05106 11 ft 27 kts 22°
2026-04-30 02:24 5.93432 116.05179 11 ft 27 kts 23°
2026-04-30 02:24 5.93609 116.05255 10 ft 28 kts 22°
2026-04-30 02:24 5.93790 116.05331 12 ft 28 kts 22°
2026-04-30 02:24 5.93974 116.05409 10 ft 29 kts 23°
2026-04-30 02:25 5.94160 116.05488 10 ft 29 kts 23°
2026-04-30 02:25 5.94347 116.05567 10 ft 29 kts 23°
2026-04-30 02:25 5.94536 116.05647 12 ft 29 kts 22°
2026-04-30 02:25 5.94725 116.05726 11 ft 30 kts 23°
2026-04-30 02:26 5.94898 116.05781 11 ft 17 kts 334°
2026-04-30 02:26 5.94942 116.05677 11 ft 16 kts 270°
2026-04-30 02:26 5.94874 116.05599 11 ft 16 kts 204°
2026-04-30 02:26 5.94775 116.05556 12 ft 15 kts 201°
2026-04-30 02:27 5.94681 116.05517 12 ft 17 kts 202°
2026-04-30 02:27 5.94471 116.05429 12 ft 56 kts 203°
2026-04-30 02:27 5.93895 116.05188 12 ft 120 kts 202°
2026-04-30 02:27 5.92956 116.04795 10 ft 170 kts 202°
2026-04-30 02:28 5.91818 116.04335 467 ft 176 kts 202°
2026-04-30 02:28 5.90677 116.03903 1052 ft 179 kts 201°
2026-04-30 02:28 5.89503 116.03472 1754 ft 179 kts 200°
2026-04-30 02:28 5.88277 116.03018 2037 ft 200 kts 200°
2026-04-30 02:29 5.86884 116.02508 2251 ft 225 kts 200°
2026-04-30 02:29 5.85347 116.01926 2546 ft 248 kts 200°
2026-04-30 02:29 5.83670 116.01283 2982 ft 265 kts 200°
2026-04-30 02:29 5.81925 116.00611 3676 ft 271 kts 200°
2026-04-30 02:30 5.80164 115.99914 4423 ft 275 kts 204°
2026-04-30 02:30 5.78616 115.98757 5152 ft 283 kts 229°
2026-04-30 02:30 5.77658 115.97031 5915 ft 287 kts 251°
2026-04-30 02:30 5.77072 115.95103 6666 ft 290 kts 252°
2026-04-30 02:31 5.76256 115.93236 7322 ft 295 kts 237°
2026-04-30 02:31 5.74941 115.91657 8006 ft 298 kts 220°
2026-04-30 02:31 5.73286 115.90367 8699 ft 301 kts 216°
2026-04-30 02:31 5.71602 115.89098 9397 ft 304 kts 216°
2026-04-30 02:32 5.69904 115.87804 10033 ft 308 kts 216°
2026-04-30 02:32 5.68174 115.86466 10359 ft 324 kts 216°
2026-04-30 02:32 5.66335 115.85033 10489 ft 346 kts 217°
2026-04-30 02:32 5.64400 115.83520 10888 ft 356 kts 217°
2026-04-30 02:33 5.62433 115.81977 11457 ft 360 kts 217°
2026-04-30 02:33 5.60449 115.80426 12062 ft 363 kts 217°
2026-04-30 02:33 5.58451 115.78867 12663 ft 366 kts 217°
2026-04-30 02:33 5.56429 115.77291 13260 ft 369 kts 217°
2026-04-30 02:34 5.54399 115.75707 13822 ft 372 kts 216°
2026-04-30 02:34 5.52346 115.74104 14330 ft 375 kts 216°
2026-04-30 02:34 5.50279 115.72494 14828 ft 378 kts 216°
2026-04-30 02:34 5.48196 115.70872 15322 ft 381 kts 216°
2026-04-30 02:35 5.46091 115.69234 15808 ft 384 kts 216°
2026-04-30 02:35 5.43975 115.67586 16296 ft 387 kts 216°
2026-04-30 02:35 5.41841 115.65924 16777 ft 390 kts 216°
2026-04-30 02:35 5.39690 115.64250 17253 ft 393 kts 216°
2026-04-30 02:36 5.37522 115.62567 17720 ft 396 kts 216°
2026-04-30 02:36 5.35339 115.60862 18182 ft 399 kts 216°
2026-04-30 02:36 5.33153 115.59135 18593 ft 402 kts 217°
2026-04-30 02:36 5.30956 115.57387 19006 ft 404 kts 217°
2026-04-30 02:37 5.28743 115.55625 19415 ft 407 kts 217°
2026-04-30 02:37 5.26517 115.53857 19820 ft 409 kts 216°
2026-04-30 02:37 5.24276 115.52079 20240 ft 412 kts 216°
2026-04-30 02:37 5.22055 115.50317 20650 ft 414 kts 216°
2026-04-30 02:38 5.19786 115.48519 21058 ft 417 kts 216°
2026-04-30 02:38 5.17499 115.46710 21456 ft 419 kts 216°
2026-04-30 02:38 5.15202 115.44896 21868 ft 422 kts 216°
2026-04-30 02:38 5.12890 115.43069 22270 ft 424 kts 216°
2026-04-30 02:39 5.10567 115.41234 22660 ft 427 kts 216°
2026-04-30 02:39 5.08230 115.39389 23046 ft 429 kts 216°
2026-04-30 02:39 5.05874 115.37530 23408 ft 432 kts 216°
2026-04-30 02:39 5.03515 115.35667 23716 ft 434 kts 216°
2026-04-30 02:40 5.01140 115.33787 24022 ft 436 kts 217°
2026-04-30 02:40 4.98756 115.31893 24326 ft 438 kts 217°
2026-04-30 02:40 4.96363 115.29990 24630 ft 439 kts 217°
2026-04-30 02:40 4.93961 115.28084 24938 ft 441 kts 217°
2026-04-30 02:41 4.91550 115.26176 25212 ft 443 kts 217°
2026-04-30 02:41 4.89122 115.24258 25496 ft 445 kts 217°
2026-04-30 02:41 4.86691 115.22339 25775 ft 447 kts 217°
2026-04-30 02:41 4.84239 115.20402 26046 ft 448 kts 217°
2026-04-30 02:42 4.81800 115.18450 26317 ft 450 kts 217°
2026-04-30 02:42 4.79354 115.16471 26571 ft 452 kts 218°
2026-04-30 02:42 4.76907 115.14479 26833 ft 455 kts 218°
2026-04-30 02:42 4.74448 115.12473 27091 ft 456 kts 218°
2026-04-30 02:43 4.71979 115.10461 27355 ft 458 kts 218°
2026-04-30 02:43 4.69505 115.08447 27609 ft 460 kts 218°
2026-04-30 02:43 4.67018 115.06429 27866 ft 461 kts 218°
2026-04-30 02:43 4.64511 115.04401 28135 ft 463 kts 218°
2026-04-30 02:44 4.62003 115.02376 28396 ft 465 kts 218°
2026-04-30 02:44 4.59473 115.00333 28635 ft 467 kts 218°
2026-04-30 02:44 4.56947 114.98293 28861 ft 469 kts 218°
2026-04-30 02:44 4.54403 114.96237 29086 ft 470 kts 218°
2026-04-30 02:45 4.51850 114.94170 29308 ft 472 kts 218°
2026-04-30 02:45 4.49328 114.92125 29522 ft 473 kts 218°
2026-04-30 02:45 4.46764 114.90049 29714 ft 475 kts 218°
2026-04-30 02:45 4.44187 114.87963 29916 ft 477 kts 218°
2026-04-30 02:46 4.41587 114.85895 30100 ft 478 kts 216°
2026-04-30 02:46 4.38942 114.83868 30269 ft 479 kts 216°
2026-04-30 02:46 4.36234 114.81846 30449 ft 480 kts 215°
2026-04-30 02:46 4.33546 114.79861 30686 ft 479 kts 215°
2026-04-30 02:47 4.30910 114.77912 30927 ft 478 kts 215°
2026-04-30 02:47 4.28240 114.75928 31174 ft 477 kts 216°
2026-04-30 02:47 4.25581 114.73939 31421 ft 477 kts 216°
2026-04-30 02:47 4.22929 114.71945 31671 ft 476 kts 216°
2026-04-30 02:48 4.20289 114.69951 31912 ft 475 kts 216°
2026-04-30 02:48 4.17650 114.67957 32164 ft 474 kts 216°
2026-04-30 02:48 4.15023 114.65970 32424 ft 474 kts 216°
2026-04-30 02:48 4.12388 114.63980 32692 ft 472 kts 216°
2026-04-30 02:49 4.09769 114.62007 32945 ft 471 kts 216°
2026-04-30 02:49 4.07146 114.60035 33206 ft 471 kts 216°
2026-04-30 02:49 4.04538 114.58076 33462 ft 470 kts 216°
2026-04-30 02:49 4.01916 114.56108 33742 ft 469 kts 216°
2026-04-30 02:50 3.99320 114.54158 33987 ft 468 kts 216°
2026-04-30 02:50 3.96713 114.52196 34211 ft 468 kts 216°
2026-04-30 02:50 3.94110 114.50233 34413 ft 467 kts 216°
2026-04-30 02:50 3.91524 114.48274 34620 ft 466 kts 217°
2026-04-30 02:51 3.88962 114.46285 34823 ft 466 kts 217°
2026-04-30 02:51 3.86425 114.44273 35022 ft 465 kts 218°
2026-04-30 02:51 3.83896 114.42248 35214 ft 465 kts 218°
2026-04-30 02:51 3.81377 114.40230 35403 ft 464 kts 218°
2026-04-30 02:52 3.78855 114.38218 35582 ft 463 kts 218°
2026-04-30 02:52 3.76362 114.36236 35764 ft 463 kts 218°
2026-04-30 02:52 3.73854 114.34249 35896 ft 462 kts 217°
2026-04-30 02:53 3.68811 114.30271 35928 ft 459 kts 217°
2026-04-30 02:53 3.63809 114.26324 35929 ft 458 kts 217°
2026-04-30 02:54 3.58798 114.22366 35928 ft 458 kts 217°
2026-04-30 02:54 3.53793 114.18412 35913 ft 458 kts 217°
2026-04-30 02:55 3.48791 114.14462 35930 ft 458 kts 217°
2026-04-30 02:55 3.43787 114.10506 35930 ft 458 kts 217°
2026-04-30 02:56 3.38775 114.06554 35931 ft 458 kts 217°
2026-04-30 02:56 3.33772 114.02604 35940 ft 458 kts 217°
2026-04-30 02:57 3.28769 113.98655 35931 ft 458 kts 217°
2026-04-30 02:57 3.23765 113.94704 35931 ft 458 kts 217°
2026-04-30 02:58 3.18759 113.90759 35927 ft 458 kts 217°
2026-04-30 02:58 3.13754 113.86814 35932 ft 458 kts 217°
2026-04-30 02:59 3.08752 113.82864 35926 ft 458 kts 218°
2026-04-30 02:59 3.03750 113.78911 35921 ft 458 kts 217°
2026-04-30 03:00 2.98747 113.74964 35934 ft 458 kts 217°
2026-04-30 03:00 2.93746 113.71022 35935 ft 457 kts 217°
2026-04-30 03:01 2.88745 113.67084 35940 ft 457 kts 217°
2026-04-30 03:01 2.83762 113.63148 35938 ft 457 kts 218°
2026-04-30 03:02 2.78807 113.59236 35937 ft 456 kts 218°
2026-04-30 03:02 2.73823 113.55308 35935 ft 456 kts 217°
2026-04-30 03:03 2.68831 113.51393 35929 ft 456 kts 217°
2026-04-30 03:03 2.61349 113.45515 35931 ft 456 kts 217°
2026-04-30 03:04 2.56356 113.41592 35933 ft 456 kts 217°
2026-04-30 03:04 2.51373 113.37671 35943 ft 456 kts 217°
2026-04-30 03:05 2.46389 113.33758 35935 ft 456 kts 217°
2026-04-30 03:05 2.41401 113.29843 35925 ft 455 kts 217°
2026-04-30 03:06 2.36417 113.25930 35939 ft 455 kts 217°
2026-04-30 03:06 2.31437 113.22016 35932 ft 455 kts 217°
2026-04-30 03:07 2.26452 113.18100 35936 ft 455 kts 217°
2026-04-30 03:07 2.22316 113.14853 35939 ft 455 kts 217°
2026-04-30 03:08 2.17335 113.10942 35933 ft 455 kts 217°
2026-04-30 03:08 2.12358 113.07038 35946 ft 455 kts 217°
2026-04-30 03:09 2.07380 113.03126 35945 ft 455 kts 217°
2026-04-30 03:09 2.02407 112.99226 35947 ft 454 kts 217°
2026-04-30 03:10 1.97432 112.95324 35952 ft 454 kts 217°
2026-04-30 03:10 1.92464 112.91428 35951 ft 454 kts 217°
2026-04-30 03:11 1.87497 112.87536 35950 ft 454 kts 217°
2026-04-30 03:11 1.82531 112.83631 35945 ft 454 kts 217°
2026-04-30 03:12 1.77573 112.79733 35955 ft 454 kts 217°
2026-04-30 03:12 1.72603 112.75836 35952 ft 454 kts 217°
2026-04-30 03:13 1.67640 112.71948 35952 ft 454 kts 217°
2026-04-30 03:13 1.62672 112.68052 35954 ft 454 kts 217°
2026-04-30 03:14 1.57708 112.64155 35955 ft 454 kts 217°
2026-04-30 03:14 1.52735 112.60271 35961 ft 454 kts 217°
2026-04-30 03:15 1.47779 112.56430 35961 ft 454 kts 217°
2026-04-30 03:15 1.42793 112.52566 35953 ft 453 kts 217°
2026-04-30 03:16 1.37808 112.48702 35940 ft 453 kts 217°
2026-04-30 03:16 1.34476 112.46113 35938 ft 454 kts 217°